Location: Abundant Grace Fellowship
(35.0349°N, 90.0924°W)
Time: 20:21:01
(UTC+00:00)

OPS 6432 - Pass Details

Date: 18 January 2026
Orbit: 421 x 1449 km, 63.3° (Epoch: 10 February)

Event Time Altitude Azimuth Distance (km) Brightness Sun altitude
Rises 23:59:59 0° 329° (NNW) 2,401 8.3 -9.6°
Reaches altitude 10° 00:02:03 10° 330° (NNW) 1,509 7.2 -10.0°
Maximum altitude 00:05:17 87° 60° (ENE) 432 4.2 -10.6°
Drops below altitude 10° 00:08:42 10° 149° (SSE) 1,589 7.0 -11.3°
Sets 00:10:55 0° 149° (SSE) 2,546 8.1 -11.7°
